[[{"header":{"parameterUnit":"m.s-1","parameterCategory":1,"la1":30.2991,"la2":30.254,"lo1":-89.0895,"lo2":-89.0444,"dy":0.0017,"dx":0.0017,"nx":28,"ny":28,"refTime":"2025-03-17T03:00:00:Z","depth":0,"parameterNumber":2,"parameterNumberName":"U-component_of_WINDS"},"data":[0,0,0,0,0,0,0,0,0,0,0,0,0,0,0,0,0,0,0,0,0,0,0,0,0,0,0,0,0,0,0,0,0,0,0,0,0,0,0,0,0,0,0,0,0,0,0,0,0,0,0,0,0,0,0,0,0,0,-1.895,-1.8952,0,-1.9055,-1.9056,-1.9057,-1.9097,-1.9097,-1.9097,-1.9097,-1.9201,-1.9204,-1.9207,0,0,0,0,0,0,0,0,0,0,0,0,0,-1.8784,-1.8787,-1.895,-1.8952,-1.8953,-1.9055,-1.9056,-1.9058,-1.9097,-1.9097,-1.9097,-1.9096,-1.92,-1.9203,-1.9207,0,0,0,0,0,0,0,0,0,0,0,0,0,-1.8869,-1.8787,-1.895,-1.8985,-1.8989,-1.9055,-1.9056,-1.9058,-1.9098,-1.9097,-1.9097,-1.9096,-1.9199,-1.9203,-1.9208,-1.9245,0,0,-1.9222,-1.9224,0,0,0,0,0,0,0,0,-1.8864,-1.8875,-1.8979,-1.8983,-1.8988,-1.9063,-1.9036,-1.9121,-1.9098,-1.9056,-1.9097,-1.9096,-1.9155,-1.9163,-1.9184,-1.925,-1.9254,-1.9222,-1.9225,-1.9227,-1.9228,0,0,0,0,0,0,0,-1.8858,-1.8871,-1.8992,-1.898,-1.8986,-1.8995,-1.9007,-1.9052,-1.9107,-1.906,-1.9063,-1.9075,-1.9157,-1.9179,-1.9187,-1.9256,-1.9222,-1.9226,-1.9229,-1.9231,-1.9359,-1.936,0,0,0,0,0,0,-1.8847,-1.8865,-1.8988,-1.8995,-1.8924,-1.8999,-1.9012,-1.9039,-1.9107,-1.9116,-1.9075,-1.9077,-1.9172,-1.9181,-1.919,-1.9239,-1.9227,-1.9231,-1.9234,-1.9358,-1.9359,-1.936,0,0,0,0,0,0,-1.8843,-1.8857,-1.8984,-1.8931,-1.8948,-1.9002,-1.9033,-1.9041,-1.9063,-1.9118,-1.9128,-1.9088,-1.9172,-1.9184,-1.9232,-1.9243,-1.9233,-1.9237,-1.9358,-1.9359,-1.9359,-1.9336,0,0,0,0,0,0,-1.8838,-1.8856,-1.887,-1.8931,-1.8951,-1.9024,-1.9033,-1.9044,-1.9071,-1.9074,-1.9132,-1.9142,-1.9172,-1.9225,-1.9236,-1.9249,-1.9241,-1.9357,-1.9358,-1.9359,-1.9336,-1.9336,-1.9336,0,0,0,0,0,-1.8832,-1.8859,-1.8871,-1.8886,-1.8971,-1.9025,-1.9036,-1.9071,-1.9072,-1.9087,-1.9123,-1.914,-1.924,-1.9229,-1.9242,-1.9257,-1.9356,-1.9358,-1.9359,-1.9336,-1.9336,-1.9336,0,0,0,0,0,0,-1.8797,-1.8867,-1.8882,-1.8929,-1.8971,-1.9031,-1.9051,-1.907,-1.9111,-1.9112,-1.9154,-1.9166,-1.9211,-1.9239,-1.9225,-1.9298,-1.9299,-1.9304,-1.9277,-1.9278,-1.9278,-1.927,-1.9245,0,0,0,0,0,-1.8795,-1.8833,-1.8893,-1.8929,-1.8949,-1.8997,-1.9022,-1.9046,-1.909,-1.9107,-1.9146,-1.9188,-1.9229,-1.9255,-1.9296,-1.9341,-1.9354,-1.9358,-1.9358,-1.9358,-1.936,-1.9387,-1.9389,-1.9365,-1.9365,-1.9365,0,0,-1.879,-1.8834,-1.8855,-1.8923,-1.8958,-1.8997,-1.9011,-1.9051,-1.908,-1.9113,-1.9161,-1.9191,-1.924,-1.9287,-1.9309,-1.9312,-1.9371,-1.936,-1.9359,-1.9362,-1.9389,-1.9391,-1.9393,-1.9366,-1.9366,-1.9365,0,0,-1.8803,-1.8839,-1.8874,-1.8909,-1.8963,-1.8995,-1.9003,-1.9061,-1.9083,-1.9132,-1.9158,-1.9193,-1.9262,-1.9297,-1.9323,-1.9351,-1.9368,-1.9363,-1.9363,-1.9388,-1.939,-1.9392,-1.9402,-1.9405,-1.9366,-1.9366,-1.9366,0,-1.879,-1.885,-1.8889,-1.8929,-1.8958,-1.8991,-1.9027,-1.9059,-1.9122,-1.9141,-1.9143,-1.9233,-1.9268,-1.9324,-1.9331,-1.9351,-1.9362,-1.9356,-1.9387,-1.9389,-1.9392,-1.9402,-1.9405,-1.9365,-1.9365,-1.9365,-1.9365,0,-1.8833,-1.8874,-1.8896,-1.8958,-1.8989,-1.9026,-1.9071,-1.9098,-1.912,-1.9151,-1.9201,-1.9245,-1.9296,-1.9311,-1.9332,-1.937,-1.937,-1.9379,-1.9382,-1.9393,-1.9402,-1.9407,-1.9363,-1.9364,-1.9364,-1.9364,0,0,-1.8824,-1.8909,-1.8916,-1.8945,-1.9007,-1.904,-1.9078,-1.9129,-1.9152,-1.9195,-1.9229,-1.9288,-1.9298,-1.9328,-1.9353,-1.9375,-1.9395,-1.9382,-1.9384,-1.9383,-1.944,-1.9432,-1.9436,-1.9407,-1.9408,-1.9408,-1.9435,0,-1.8844,-1.8916,-1.8953,-1.9009,-1.9048,-1.9081,-1.9115,-1.9156,-1.9187,-1.9224,-1.9258,-1.93,-1.9309,-1.9327,-1.9351,-1.9387,-1.9407,-1.9386,-1.9438,-1.9439,-1.9424,-1.9441,-1.9433,-1.9456,-1.9439,-1.944,-1.9441,0,-1.8877,-1.8922,-1.8981,-1.904,-1.9058,-1.9088,-1.9138,-1.9173,-1.9221,-1.9242,-1.9277,-1.9303,-1.9345,-1.9345,-1.9404,-1.9389,-1.9412,-1.9434,-1.9435,-1.9441,-1.944,-1.9446,-1.9464,-1.9467,-1.9447,-1.9447,-1.9446,0,-1.8865,-1.894,-1.8985,-1.9009,-1.9079,-1.9099,-1.9129,-1.9177,-1.9206,-1.925,-1.9269,-1.9316,-1.9342,-1.9379,-1.9416,-1.9413,-1.9471,-1.9475,-1.949,-1.9489,-1.9499,-1.9498,-1.9521,-1.9515,-1.9515,-1.9515,-1.9515,0,-1.8884,-1.8919,-1.8981,-1.9009,-1.905,-1.9092,-1.9131,-1.9164,-1.9206,-1.9241,-1.9272,-1.9304,-1.9352,-1.939,-1.942,-1.9464,-1.9475,-1.9493,-1.95,-1.949,-1.9488,-1.9505,-1.9505,-1.9516,-1.9516,-1.9516,-1.9516,0,-1.8877,-1.892,-1.8972,-1.9034,-1.9051,-1.9078,-1.9131,-1.916,-1.9193,-1.9236,-1.9249,-1.9301,-1.9347,-1.9389,-1.945,-1.947,-1.9515,-1.9524,-1.9498,-1.9502,-1.9515,-1.9513,-1.9549,-1.9556,-1.9546,-1.9546,-1.9546,0,-1.8886,-1.8914,-1.898,-1.9006,-1.9036,-1.9077,-1.9107,-1.915,-1.918,-1.9238,-1.9259,-1.9308,-1.9349,-1.9422,-1.9464,-1.9511,-1.9522,-1.9531,-1.9529,-1.9518,-1.9522,-1.9519,-1.9522,-1.953,-1.953,-1.953,-1.953,0,-1.8897,-1.8917,-1.8959,-1.9009,-1.9045,-1.9086,-1.9128,-1.9147,-1.9199,-1.923,-1.9279,-1.9311,-1.9374,-1.9422,-1.9474,-1.9505,-1.9526,-1.9531,-1.9537,-1.9526,-1.951,-1.9519,-1.9497,-1.953,-1.953,-1.953,-1.953,-1.953,-1.8898,-1.8925,-1.8976,-1.9022,-1.9059,-1.9098,-1.9128,-1.9166,-1.9207,-1.9262,-1.9285,-1.9334,-1.9383,-1.9455,-1.9486,-1.9525,-1.9529,-1.9537,-1.9539,-1.9541,-1.9539,-1.9505,-1.9534,-1.9534,-1.9534,-1.9535,-1.9535,0,-1.8911,-1.8946,-1.8988,-1.9047,-1.9083,-1.9102,-1.915,-1.9179,-1.9222,-1.9266,-1.9306,-1.9362,-1.9409,-1.9456,-1.9506,-1.9528,-1.9539,-1.9539,-1.9538,-1.9545,-1.9532,-1.9522,-1.953,-1.953,-1.953,-1.953,-1.953,-1.953,-1.8922,-1.8968,-1.8995,-1.906,-1.9095,-1.9144,-1.917,-1.9206,-1.9241,-1.9303,-1.9342,-1.9373,-1.9419,-1.9472,-1.9516,-1.9529,-1.9545,-1.9543,-1.9558,-1.9545,-1.9545,-1.9545,-1.9536,-1.9546,-1.9546,-1.9567,-1.9568,-1.9568]},{"header":{"parameterUnit":"m.s-1","parameterCategory":1,"la1":30.2991,"la2":30.254,"lo1":-89.0895,"lo2":-89.0444,"dy":0.0017,"dx":0.0017,"nx":28,"ny":28,"refTime":"2025-03-17T03:00:00:Z","depth":0,"parameterNumber":3,"parameterNumberName":"V-component_of_WINDS"},"data":[0,0,0,0,0,0,0,0,0,0,0,0,0,0,0,0,0,0,0,0,0,0,0,0,0,0,0,0,0,0,0,0,0,0,0,0,0,0,0,0,0,0,0,0,0,0,0,0,0,0,0,0,0,0,0,0,0,0,0.325,0.3249,0,0.3197,0.3196,0.3195,0.315,0.315,0.3149,0.3149,0.309,0.3089,0.3088,0,0,0,0,0,0,0,0,0,0,0,0,0,0.331,0.3309,0.325,0.3249,0.3249,0.3197,0.3196,0.3195,0.315,0.315,0.3149,0.3149,0.3091,0.3089,0.3088,0,0,0,0,0,0,0,0,0,0,0,0,0,0.3273,0.3309,0.325,0.322,0.3217,0.3197,0.3196,0.3195,0.3151,0.315,0.3149,0.3148,0.3091,0.3089,0.3088,0.3092,0,0,0.3083,0.3082,0,0,0,0,0,0,0,0,0.3275,0.3271,0.3225,0.3222,0.3219,0.318,0.3196,0.316,0.3151,0.3176,0.3149,0.3148,0.312,0.3116,0.3108,0.3089,0.3087,0.3083,0.3082,0.3081,0.308,0,0,0,0,0,0,0,0.3278,0.3273,0.3229,0.3225,0.3221,0.3208,0.3202,0.3189,0.3153,0.3173,0.317,0.3165,0.3118,0.3109,0.3106,0.3086,0.3083,0.3081,0.308,0.3079,0.3068,0.3068,0,0,0,0,0,0,0.3285,0.3275,0.323,0.3227,0.3246,0.3208,0.3201,0.3193,0.3153,0.3146,0.3165,0.3163,0.3113,0.3108,0.3104,0.3106,0.3081,0.3079,0.3078,0.3067,0.3068,0.3068,0,0,0,0,0,0,0.3287,0.3282,0.3233,0.325,0.3243,0.3208,0.3199,0.3192,0.3183,0.3146,0.3139,0.3163,0.3112,0.3106,0.3095,0.3103,0.3079,0.3077,0.3066,0.3067,0.3068,0.311,0,0,0,0,0,0,0.3289,0.3283,0.3285,0.3251,0.3242,0.3227,0.3199,0.3192,0.3181,0.3177,0.3142,0.3136,0.3111,0.3098,0.3094,0.31,0.3076,0.3065,0.3067,0.3068,0.3108,0.3112,0.3116,0,0,0,0,0,0.3291,0.3298,0.3285,0.328,0.3244,0.3227,0.3222,0.3194,0.3182,0.3183,0.3159,0.3137,0.3103,0.3097,0.3092,0.3098,0.3065,0.3066,0.3068,0.3106,0.3111,0.3116,0,0,0,0,0,0,0.3332,0.3293,0.3278,0.3274,0.3255,0.322,0.322,0.3201,0.3183,0.318,0.3145,0.3138,0.3131,0.3113,0.3108,0.31,0.3081,0.3081,0.3112,0.3116,0.3121,0.3125,0.3074,0,0,0,0,0,0.3341,0.3331,0.3297,0.3296,0.3288,0.3256,0.3247,0.3228,0.3205,0.3196,0.3172,0.315,0.3134,0.3124,0.3108,0.3105,0.3096,0.3106,0.3111,0.3114,0.3115,0.3112,0.3116,0.3074,0.3074,0.3074,0,0,0.3358,0.3335,0.3331,0.3304,0.3287,0.3276,0.3249,0.3239,0.3231,0.3194,0.3183,0.3164,0.3137,0.3131,0.3127,0.3116,0.3125,0.3116,0.312,0.3118,0.3114,0.3118,0.3121,0.3075,0.3074,0.3074,0,0,0.3385,0.3367,0.3365,0.3348,0.3323,0.3301,0.3301,0.3269,0.3256,0.3245,0.3217,0.3206,0.318,0.3162,0.3149,0.317,0.3148,0.3165,0.3187,0.3184,0.3188,0.319,0.3197,0.32,0.3166,0.3166,0.3166,0,0.3409,0.3394,0.3366,0.3358,0.3347,0.3315,0.3312,0.3296,0.3266,0.3258,0.3247,0.3214,0.3194,0.3182,0.3188,0.3179,0.3176,0.3169,0.319,0.3192,0.3194,0.3201,0.3203,0.3168,0.3168,0.3168,0.3168,0,0.3425,0.3415,0.3416,0.339,0.3378,0.3373,0.3343,0.3335,0.3316,0.3296,0.3285,0.3259,0.3237,0.3233,0.3214,0.3219,0.3213,0.3197,0.3177,0.3201,0.3206,0.3208,0.3172,0.3171,0.317,0.317,0,0,0.3475,0.3434,0.3435,0.3422,0.3392,0.3383,0.3376,0.3356,0.3349,0.3329,0.3322,0.3301,0.3286,0.3271,0.325,0.3248,0.3266,0.3231,0.323,0.3238,0.3269,0.3281,0.3284,0.3252,0.3252,0.3253,0.3271,0,0.3496,0.3483,0.3458,0.3453,0.3443,0.3412,0.3406,0.3386,0.3367,0.3355,0.3333,0.3319,0.33,0.3291,0.3288,0.3265,0.3271,0.3263,0.3243,0.3243,0.3251,0.3287,0.33,0.3318,0.3273,0.3273,0.3273,0,0.3519,0.3503,0.3497,0.3468,0.3462,0.3458,0.3437,0.3426,0.3403,0.3389,0.3374,0.3351,0.3341,0.3324,0.3309,0.3304,0.3294,0.3282,0.3282,0.3278,0.3259,0.3284,0.3324,0.3326,0.3276,0.3276,0.3276,0,0.3556,0.3532,0.3525,0.3516,0.3482,0.3479,0.3464,0.344,0.343,0.3412,0.3404,0.3385,0.3374,0.3358,0.3331,0.3321,0.3319,0.3299,0.3306,0.3307,0.3306,0.3306,0.3344,0.3302,0.3301,0.3301,0.3301,0,0.3582,0.3579,0.3542,0.3537,0.3533,0.3504,0.35,0.3483,0.3462,0.3453,0.3425,0.3417,0.3382,0.3369,0.3347,0.3338,0.3333,0.3321,0.3315,0.3323,0.3324,0.3316,0.3313,0.3302,0.3302,0.3302,0.3302,0,0.3621,0.3596,0.3587,0.3556,0.3548,0.3546,0.3519,0.3513,0.3493,0.3482,0.3478,0.3446,0.343,0.3401,0.3376,0.3362,0.3356,0.3347,0.3365,0.3361,0.337,0.3369,0.3403,0.3405,0.3362,0.3362,0.3362,0,0.3639,0.3636,0.3606,0.3599,0.3585,0.3574,0.3564,0.3535,0.3525,0.3498,0.3496,0.3478,0.3462,0.3437,0.3411,0.3392,0.3381,0.3394,0.3378,0.3386,0.338,0.3381,0.338,0.3397,0.3398,0.3399,0.3399,0,0.3673,0.3661,0.3648,0.3631,0.362,0.3604,0.3587,0.3583,0.355,0.354,0.3524,0.3512,0.3487,0.3469,0.3447,0.343,0.3409,0.3405,0.3405,0.3413,0.3423,0.3417,0.3374,0.3404,0.3403,0.3403,0.3403,0.3402,0.3702,0.3698,0.3676,0.3662,0.3647,0.3632,0.3625,0.3605,0.3592,0.3571,0.3554,0.354,0.3516,0.3483,0.3468,0.3455,0.3445,0.3446,0.3446,0.3447,0.345,0.3426,0.3451,0.3451,0.3451,0.3451,0.3451,0,0.3734,0.3719,0.3707,0.3685,0.3674,0.3657,0.3637,0.3629,0.3617,0.3597,0.3583,0.3564,0.3547,0.352,0.35,0.3495,0.3485,0.3491,0.349,0.3487,0.346,0.3461,0.3499,0.3499,0.3499,0.3499,0.3499,0.3499,0.3749,0.3742,0.3728,0.3713,0.3697,0.3684,0.3674,0.366,0.3644,0.3625,0.3612,0.3595,0.3572,0.355,0.3534,0.3526,0.3519,0.3529,0.3518,0.3493,0.3489,0.3484,0.3485,0.3528,0.3528,0.3545,0.3545,0.3545]}]]